Location: *
(35.8942°N, 23.3025°E)
Time: 21:48:41
(UTC+00:00)

ADEOS II - Pass Details

Date: 21 September 2021
Orbit: 799 x 801 km, 98.6° (Epoch: 22 October)

Event Time Altitude Azimuth Distance (km) Brightness Sun altitude
Rises 01:44:58 0° 355° (N) 3,312 5.5 -30.0°
Reaches altitude 10° 01:47:53 10° 339° (NNW) 2,378 4.6 -29.5°
Enters shadow 01:48:06 11° 337° (NNW) 2,321 4.5 -29.4°
